Regional Weather Roundup
Issued by NWS

Home | Current Version | Previous Version | Graphics & Text | Print | Product List | Glossary Off
Versions: 1 2 3 4 5 6 7 8 9 10 11 12 13 14 15 16 17 18 19 20 21 22 23 24 25 26 27 28 29 30 31 32 33 34 35 36 37 38 39 40 41 42 43 44 45 46 47 48 49 50

143
ASUS43 KBIS 240231
RWRND
NORTH DAKOTA REGIONAL WEATHER ROUNDUP
NATIONAL WEATHER SERVICE EASTERN NORTH DAKOTA/GRAND FORKS ND
900 PM CDT FRI JUN 23 2017

  NOTE: "FAIR" INDICATES FEW OR NO CLOUDS BELOW 12,000 FEET WITH NO
  SIGNIFICANT WEATHER AND/OR OBSTRUCTIONS TO VISIBILITY.

NDZ001>003-009>011-017-240300-
...NORTHWEST NORTH DAKOTA...

CITY           SKY/WX    TMP DP  RH WIND       PRES   REMARKS
WILLISTON      CLOUDY    64  34  32 NW9       30.13R
MINOT          FAIR      59  35  40 NW12      30.06S
MINOT AFB      FAIR      60  36  41 NW12      30.05S
$$

NDZ018>021-031>035-040>046-240300-
...SOUTHWEST NORTH DAKOTA...

CITY           SKY/WX    TMP DP  RH WIND       PRES   REMARKS
BISMARCK       FAIR      63  35  35 N15       30.10R
DICKINSON      FAIR      60  27  28 N16       30.12S
GARRISON         N/A     58  34  40 NW14      30.09S
HETTINGER      FAIR      62  29  28 NW14      30.16R
$$

NDZ004>008-012>016-024-026-027-054-240300-
...NORTHEAST NORTH DAKOTA...

CITY           SKY/WX    TMP DP  RH WIND       PRES   REMARKS
GRAND FORKS    MOCLDY    58  41  53 NW16G24   29.96R
GRAND FORKS AF CLOUDY    57  38  48 NW12G22   29.98R
DEVILS LAKE    CLOUDY    56  39  53 NW16      30.02S
$$

NDZ022-023-025-028>030-036>039-047>053-240300-
...SOUTHEAST NORTH DAKOTA...

CITY           SKY/WX    TMP DP  RH WIND       PRES   REMARKS
JAMESTOWN      FAIR      58  38  47 NW21      30.04R
FARGO          CLOUDY    62  41  46 NW17G23   29.97R
WAHPETON       FAIR      59  37  44 NW13      29.98R
$$




USA.gov is the U.S. government's official web portal to all federal, state and local government web resources and services.